Location: Bouillancy
(49.1149°N, 2.9308°E)
Time: 08:07:49
(UTC+00:00)

Cosmos 1470 - Pass Details

Date: 30 September 2020
Orbit: 521 x 542 km, 82.5° (Epoch: 29 October)

Event Time Altitude Azimuth Distance (km) Brightness Sun altitude
Exits shadow 19:07:27 26° 151° (SSE) 1,068 3.9 -16.9°
Maximum altitude 19:09:15 44° 94° (E) 731 3.0 -17.2°
Drops below altitude 10° 19:12:57 10° 22° (NNE) 1,773 5.4 -17.8°
Sets 19:15:09 0° 16° (NNE) 2,665 6.3 -18.1°
